Temperature
11 10 9 11 12 13 14 14 14 15 14 14 13 13 14 14 14 14 15 15 15 14 13 13 12 11 11 10 10 10 10 10 10 10 10 10 10 10 9 9 9 9 9 9
10 9 11 13 13 13 13 12 13 13 13 13 12 13 13 14 14 14 15 15 15 14 14 13 12 11 11 10 10 10 10 10 10 10 10 10 10 9 9 9 9 9 9 9
10 11 12 12 12 12 12 12 12 13 12 12 12 11 13 14 15 15 15 15 15 14 13 13 12 11 10 10 10 10 10 10 10 10 10 9 9 9 9 8 8 8 8 8
10 11 11 11 12 12 11 12 13 12 10 10 11 9 13 14 14 14 14 14 14 14 13 12 11 11 10 10 10 9 10 10 9 9 9 9 9 8 8 8 8 8 8 8
10 11 10 10 11 12 11 12 12 12 11 10 11 9 11 13 13 13 13 14 14 14 13 12 11 11 10 10 9 9 9 9 9 9 9 8 8 8 8 8 7 7 7 7
9 10 10 10 11 11 11 11 11 11 9 8 9 9 10 12 13 13 13 13 14 13 13 12 11 10 10 9 9 9 9 9 9 9 8 8 8 8 7 7 7 7 7 7
8 9 9 10 9 10 10 8 7 7 7 7 11 10 10 13 13 13 12 13 13 12 12 11 10 10 9 9 9 8 8 8 8 8 8 8 8 7 7 7 7 7 7 6
7 7 8 8 9 8 8 8 8 8 8 9 10 10 11 12 12 12 12 12 12 11 11 10 10 9 9 9 8 8 8 8 8 8 8 7 7 7 7 7 7 6 6 6
7 7 9 9 9 9 8 8 9 8 9 9 9 11 11 12 11 11 11 11 10 10 10 10 9 9 9 8 8 8 8 8 8 8 7 7 7 7 6 6 6 6 6 6
7 6 7 7 8 8 8 9 8 7 8 9 10 11 10 10 10 10 9 10 10 10 9 9 9 8 8 8 8 8 7 7 7 7 7 7 7 6 6 6 6 5 5 5
6 5 5 6 6 6 7 7 7 7 8 9 9 10 11 10 10 9 9 10 10 9 9 8 8 8 8 7 7 7 7 7 7 7 7 6 6 6 6 5 5 5 5 5
5 5 4 5 6 6 6 7 7 7 7 8 8 8 10 9 9 9 9 10 9 9 8 8 7 7 7 7 7 7 6 6 6 6 6 6 6 5 5 5 5 5 5 5
4 4 4 4 4 4 5 5 6 6 6 7 8 8 9 8 9 9 9 9 9 8 8 7 7 7 7 6 6 6 6 6 6 6 6 5 5 5 5 5 5 5 5 4
5 3 3 4 5 3 3 4 4 5 5 7 8 8 8 8 8 8 8 8 8 8 7 7 7 6 6 6 6 6 6 6 5 5 5 5 5 5 5 4 4 4 4 4
4 3 3 4 5 5 4 4 4 4 5 6 8 8 8 8 7 7 8 8 7 7 7 6 6 6 6 6 6 5 5 5 5 5 5 4 4 4 4 4 4 4 4 4
2 2 3 4 5 5 4 4 4 5 5 6 7 7 8 8 8 7 7 7 7 6 6 6 6 6 6 5 5 5 5 5 4 4 4 4 4 4 4 4 4 3 3 3
2 2 2 3 4 4 3 4 4 4 5 6 6 6 7 6 6 6 6 6 6 6 6 5 5 5 5 5 5 5 4 4 4 4 4 4 3 3 3 3 3 3 3 3
1 1 2 3 3 3 4 5 5 5 5 5 5 5 6 6 6 6 6 5 5 5 5 5 5 5 5 5 4 4 4 4 4 3 3 3 3 3 3 3 3 2 2 2
2 1 2 2 2 3 4 4 4 4 3 4 4 5 5 5 5 4 5 5 5 5 5 5 4 4 4 4 4 4 3 3 3 3 3 3 2 2 2 2 2 2 2 2
1 1 1 2 3 3 3 4 4 4 3 4 4 4 4 4 3 3 4 4 4 4 4 4 4 4 4 3 3 3 3 3 3 3 2 2 2 2 2 2 2 1 1 1
1 1 1 1 2 2 3 3 4 3 2 3 4 4 3 3 3 3 3 3 3 3 3 3 3 3 3 3 3 3 2 2 2 2 2 2 1 1 1 1 1 1 1 1
1 1 1 1 2 2 2 2 2 2 3 3 3 3 2 2 2 2 2 2 2 3 3 3 3 2 2 2 2 2 2 2 1 1 1 1 1 1 1 0 0 0 -0 0
1 1 1 1 1 1 2 2 2 2 2 2 2 2 2 2 1 1 1 1 1 2 2 2 2 1 1 1 1 1 1 1 1 1 1 0 0 -0 -0 -0 -0 -1 -1 -1
0 1 1 0 1 1 1 1 1 1 1 1 1 1 1 1 1 1 1 1 1 1 1 1 1 1 0 0 0 0 0 0 0 0 -0 -0 -1 -1 -1 -1 -1 -1 -1 -2
-0 -1 -1 -1 -1 0 0 0 0 0 1 1 1 1 0 0 0 0 -0 -0 -0 -0 -0 -0 -0 -0 -0 -0 -0 -0 -0 -0 -0 -1 -1 -1 -1 -2 -2 -2 -2 -2 -2 -2
-1 -2 -1 -1 -1 -1 -1 -1 -1 -0 -0 -0 -0 -0 -0 -0 -1 -1 -1 -1 -1 -1 -1 -1 -1 -1 -1 -1 -1 -1 -1 -1 -1 -1 -2 -2 -2 -2 -2 -2 -2 -2 -2 -3
Wind_Speed
10 8 12 15 17 12 7 8 8 3 4 7 10 11 10 8 8 10 10 10 11 11 11 10 10 10 9 9 9 8 7 6 5 3 3 2 2 1 1 1 2 1 1 1
9 14 15 12 12 13 12 10 7 2 3 4 6 10 10 10 11 10 11 10 10 10 10 11 10 9 9 9 9 9 8 7 5 4 3 3 2 2 1 1 2 2 1 1
14 7 10 13 12 13 13 12 9 5 1 4 4 8 11 11 12 11 11 10 10 11 11 11 11 9 8 8 9 8 8 7 6 5 3 2 2 1 1 1 1 2 2 1
13 11 8 10 12 11 10 8 7 5 3 4 6 5 6 7 10 12 11 10 9 10 10 11 11 10 9 8 7 7 7 7 6 6 4 4 3 3 3 2 2 2 2 2
7 8 10 11 11 10 4 1 3 5 5 4 5 5 7 5 8 11 10 10 9 9 10 11 11 10 9 8 7 7 7 7 6 6 5 5 3 3 2 2 2 2 2 2
8 4 5 7 5 6 5 3 1 3 3 6 10 8 6 6 8 8 9 9 9 8 8 9 9 9 8 8 7 6 6 6 6 6 6 5 4 3 2 2 2 2 1 2
8 8 5 3 5 6 7 6 3 3 5 8 7 8 7 4 2 6 8 8 7 7 7 8 9 9 9 9 9 7 7 6 6 6 5 5 4 4 4 3 2 2 1 2
8 8 11 7 8 8 10 8 6 6 6 4 6 8 4 3 4 5 6 6 6 6 6 7 8 9 9 9 8 7 7 6 6 6 5 4 4 3 2 2 2 2 2 3
5 4 7 8 5 6 9 9 4 1 2 3 6 5 2 4 5 5 6 7 6 6 6 6 7 8 8 8 7 6 6 5 5 5 5 4 4 3 2 2 2 2 2 3
1 2 4 4 3 5 3 5 5 5 5 5 5 7 5 7 7 6 7 7 6 6 6 6 6 6 7 7 6 5 5 5 5 5 4 3 3 3 2 2 2 2 2 3
1 2 2 5 8 10 7 6 6 5 4 4 4 2 2 4 6 7 6 7 7 7 6 5 5 5 6 6 6 4 4 4 3 4 4 3 2 2 2 2 2 2 2 3
2 2 3 4 3 2 5 6 7 6 5 4 2 2 3 4 5 6 6 6 6 6 6 5 5 5 5 6 5 5 4 4 4 3 3 3 2 1 1 2 2 2 3 4
1 2 2 2 2 2 4 5 5 3 2 4 4 3 1 4 6 6 6 6 6 6 6 5 4 4 4 5 5 5 4 3 3 3 2 2 2 1 1 2 2 2 3 4
1 3 4 5 2 4 5 7 7 5 5 5 5 4 3 3 4 5 5 6 6 5 5 4 3 3 4 4 4 4 4 3 3 3 2 2 1 1 1 1 2 3 3 4
1 3 4 6 5 3 5 8 10 10 9 6 5 5 4 3 4 4 4 5 5 4 4 3 3 2 3 3 3 3 3 3 3 3 2 1 1 0 1 2 2 3 4 4
1 2 2 5 5 4 5 7 11 11 9 8 4 3 1 3 4 4 3 3 3 3 3 3 2 2 3 2 3 3 2 2 3 3 2 1 1 1 1 2 2 3 4 4
2 2 2 3 3 2 6 8 10 8 7 8 8 5 3 2 2 2 2 2 2 3 3 3 2 2 2 2 2 2 2 3 3 2 2 2 1 1 1 2 3 3 4 4
3 3 2 2 2 6 4 1 7 7 4 4 3 2 3 3 2 2 3 2 1 2 2 2 2 2 2 3 3 3 3 3 3 2 2 1 1 1 2 2 3 4 4 4
6 4 2 2 4 4 3 1 2 4 3 2 3 2 2 3 3 1 2 2 1 1 1 2 2 2 3 3 3 3 3 3 2 2 1 1 1 1 2 3 4 4 4 4
4 4 3 3 3 3 2 2 2 2 2 1 1 1 2 3 3 1 2 3 3 3 3 3 3 4 3 3 4 4 2 2 1 1 1 1 1 2 2 3 4 4 4 4
4 5 6 5 3 2 3 2 1 3 3 2 2 2 3 2 2 2 4 4 4 4 4 4 4 4 3 3 4 3 2 1 1 1 1 1 1 2 3 3 3 4 4 5
3 3 4 4 4 3 2 2 2 1 2 4 4 4 4 3 4 4 5 4 4 4 4 4 4 4 3 3 4 3 2 2 2 2 1 2 2 2 2 3 3 3 4 4
1 1 1 2 2 1 3 3 2 3 3 3 3 4 4 3 3 3 4 3 4 4 4 4 4 4 4 4 4 3 2 3 3 2 2 2 3 3 2 2 3 4 4 4
2 2 1 0 1 2 3 4 5 5 4 4 4 4 4 4 3 3 3 3 4 4 4 4 4 4 4 4 4 3 3 3 3 2 2 2 3 3 3 3 3 3 3 4
2 2 1 0 1 2 3 4 5 5 5 5 5 5 4 3 3 3 3 3 3 3 3 4 4 3 3 3 4 3 3 3 3 2 2 3 3 3 3 3 3 3 3 3
2 2 1 1 1 1 1 3 4 4 4 4 4 5 5 3 3 3 3 3 3 3 3 3 3 3 3 3 3 3 3 3 3 2 3 3 3 3 3 4 5 6 6 8
Wind_Direction
193 204 210 208 214 233 257 247 250 232 157 195 224 241 245 227 213 212 211 203 194 193 182 168 160 156 154 155 155 158 159 160 152 156 160 159 168 167 147 150 153 186 251 333
195 223 225 222 218 232 252 257 259 257 156 210 248 256 250 234 220 213 211 207 197 188 177 167 162 162 165 164 162 163 164 165 161 165 169 169 165 181 186 179 178 202 222 265
212 212 218 224 224 223 234 237 239 241 195 236 268 277 239 231 219 209 206 202 194 184 179 172 167 166 163 165 166 170 167 164 164 160 154 146 124 131 169 199 205 201 207 229
228 228 217 217 223 217 232 239 234 229 220 246 200 267 254 217 209 205 201 195 193 182 176 172 169 169 170 167 160 161 162 161 162 159 163 169 177 195 215 204 213 221 198 198
224 212 210 216 220 217 212 229 224 222 227 263 229 245 267 211 214 204 193 189 189 180 174 170 169 170 164 156 157 161 162 162 164 168 173 179 192 207 207 195 205 224 221 201
245 255 222 223 226 208 155 138 187 240 224 246 217 212 258 214 210 191 181 178 179 171 163 159 158 154 150 151 155 160 164 167 167 172 178 184 191 196 197 208 211 226 231 235
228 229 222 194 180 179 176 155 160 190 214 237 202 205 239 211 172 164 163 165 164 154 154 155 154 158 159 158 161 165 168 174 172 174 183 187 193 195 200 205 210 226 240 253
201 213 197 197 195 181 196 189 181 189 206 218 188 216 232 150 108 104 116 124 129 139 146 150 154 156 155 155 160 167 173 176 176 178 186 187 190 193 200 206 214 232 240 247
212 216 167 188 203 181 181 213 231 235 266 232 216 210 199 139 129 129 130 129 139 143 141 144 146 149 149 152 158 165 170 176 179 180 182 187 188 193 195 206 225 240 249 266
283 222 184 175 198 247 218 187 175 191 203 228 221 207 200 174 172 163 155 151 149 147 145 141 140 145 148 150 152 157 166 177 177 177 185 188 187 188 189 203 231 250 261 272
232 203 167 169 198 195 189 201 196 200 227 210 218 221 9 152 153 149 143 142 146 146 146 142 142 143 142 142 148 155 165 163 167 180 177 174 182 179 193 214 234 248 262 266
210 200 212 201 186 220 211 204 188 187 219 218 237 250 0 84 106 115 115 121 123 128 132 136 139 139 140 144 150 158 168 170 169 169 168 168 170 178 211 235 250 256 266 270
171 181 180 178 203 226 224 225 216 211 223 219 213 213 116 91 98 109 117 116 117 122 124 128 134 144 148 148 150 155 158 163 153 157 159 155 165 186 229 254 269 275 277 280
217 197 214 216 229 179 205 209 200 196 213 225 220 186 186 133 114 112 116 116 112 116 119 123 134 146 145 143 144 149 147 144 142 149 157 159 171 185 260 297 299 293 289 286
208 223 243 271 279 214 214 212 202 207 218 219 218 194 186 164 152 131 118 114 111 111 115 120 127 133 136 138 139 139 144 142 137 146 148 159 143 81 351 325 314 307 300 296
228 237 251 262 248 238 239 217 208 215 224 236 240 243 176 115 103 106 113 122 125 135 132 122 109 109 123 130 134 130 135 143 140 139 142 125 90 43 351 317 307 306 305 304
225 207 222 243 233 231 247 220 202 207 211 208 221 224 149 134 135 143 136 126 149 145 131 124 117 102 103 107 117 128 132 119 124 128 125 110 95 20 324 313 313 308 308 311
206 217 221 229 208 225 238 257 189 192 215 206 185 168 155 149 129 86 92 102 75 91 117 116 109 94 82 85 90 96 104 111 114 112 104 91 62 339 323 318 314 311 310 307
209 199 208 208 227 245 269 296 169 180 244 243 200 182 137 129 106 50 62 66 63 60 93 116 109 100 84 83 86 88 91 94 95 90 74 39 351 315 316 313 309 310 313 310
196 191 207 220 230 235 277 313 294 135 258 331 119 148 146 133 169 226 53 58 59 59 68 81 84 81 80 75 81 85 85 90 92 82 28 337 326 315 306 303 306 310 310 308
183 199 212 225 235 265 325 328 80 159 225 39 77 76 90 123 153 110 73 63 73 72 73 81 80 77 71 72 79 80 73 64 45 38 10 342 328 314 305 306 306 313 314 314
185 200 205 208 219 245 2 82 125 116 61 63 61 65 69 72 76 75 71 66 67 69 68 74 77 68 60 69 79 69 40 23 35 34 15 343 328 321 323 316 316 318 320 318
184 218 217 184 189 78 82 77 50 40 43 40 54 67 79 77 76 77 75 67 66 68 67 67 77 70 53 52 67 64 21 28 31 20 1 342 334 330 327 322 323 327 327 324
346 348 9 69 34 47 58 47 38 37 37 39 56 64 75 81 70 71 74 71 71 67 69 70 70 65 51 42 47 48 29 28 29 7 350 347 343 339 337 334 323 323 326 326
329 349 360 231 347 13 23 26 25 30 37 41 47 51 58 79 72 77 79 73 71 67 63 65 72 67 49 40 41 41 34 27 22 4 353 349 345 340 337 332 323 320 311 313
357 337 302 264 303 310 324 16 28 32 29 34 45 43 37 51 68 73 70 66 69 70 66 64 60 54 43 38 30 30 30 28 20 6 357 348 340 338 335 330 331 332 327 325
Height
1449 1452 1450 1447 1447 1446 1444 1446 1445 1443 1445 1449 1451 1451 1448 1447 1448 1449 1451 1453 1456 1460 1464 1467 1470 1473 1475 1478 1480 1482 1484 1486 1488 1489 1490 1492 1493 1494 1495 1495 1496 1496 1496 1496
1446 1445 1441 1441 1443 1445 1445 1447 1447 1445 1446 1448 1449 1447 1443 1442 1442 1443 1445 1448 1451 1455 1459 1463 1466 1469 1471 1474 1476 1478 1480 1482 1484 1486 1488 1489 1490 1491 1492 1493 1493 1493 1493 1493
1438 1436 1437 1439 1440 1443 1443 1446 1446 1447 1448 1448 1451 1448 1439 1434 1434 1437 1440 1443 1446 1450 1453 1457 1461 1464 1467 1470 1472 1474 1477 1479 1481 1483 1485 1486 1487 1488 1489 1489 1490 1490 1490 1490
1434 1433 1435 1436 1438 1439 1444 1440 1442 1446 1453 1455 1451 1458 1435 1429 1430 1431 1434 1437 1441 1445 1449 1452 1456 1459 1463 1466 1469 1471 1474 1476 1478 1480 1481 1482 1483 1484 1485 1486 1487 1487 1487 1487
1430 1429 1432 1434 1435 1437 1440 1440 1442 1445 1450 1455 1450 1458 1440 1427 1428 1427 1429 1432 1436 1440 1444 1448 1451 1455 1459 1462 1465 1468 1470 1472 1474 1476 1478 1479 1481 1482 1483 1483 1484 1484 1484 1484
1430 1429 1430 1431 1433 1435 1440 1443 1446 1447 1453 1462 1449 1453 1440 1428 1422 1422 1425 1428 1433 1437 1441 1444 1448 1452 1455 1459 1462 1464 1467 1469 1471 1473 1475 1476 1477 1478 1479 1480 1480 1480 1480 1480
1430 1429 1429 1431 1435 1436 1440 1449 1458 1461 1463 1455 1436 1441 1434 1420 1416 1418 1421 1425 1430 1434 1438 1441 1445 1448 1451 1455 1458 1461 1463 1465 1468 1470 1471 1473 1474 1475 1476 1476 1476 1477 1476 1476
1430 1429 1428 1429 1430 1434 1438 1441 1449 1453 1450 1441 1433 1436 1425 1416 1416 1417 1420 1424 1428 1432 1436 1439 1442 1445 1448 1452 1454 1457 1460 1462 1464 1466 1468 1470 1471 1472 1473 1473 1473 1473 1473 1473
1424 1425 1422 1425 1427 1429 1435 1438 1434 1440 1438 1441 1433 1424 1420 1416 1417 1419 1422 1425 1428 1431 1435 1438 1441 1443 1446 1449 1452 1454 1457 1459 1461 1463 1465 1466 1468 1469 1469 1469 1470 1470 1470 1469
1423 1427 1425 1426 1428 1429 1430 1431 1438 1442 1442 1435 1425 1421 1423 1419 1419 1420 1422 1425 1428 1431 1434 1437 1439 1442 1444 1447 1450 1453 1455 1457 1459 1460 1461 1463 1464 1465 1466 1466 1466 1466 1466 1466
1425 1430 1429 1428 1429 1429 1431 1433 1432 1434 1432 1432 1429 1426 1415 1415 1416 1419 1421 1424 1428 1431 1434 1436 1438 1441 1443 1446 1448 1450 1452 1454 1456 1457 1458 1460 1461 1462 1462 1462 1462 1462 1462 1462
1424 1428 1430 1428 1426 1427 1427 1426 1430 1435 1433 1429 1428 1431 1416 1415 1417 1419 1422 1425 1428 1431 1434 1436 1438 1440 1442 1444 1446 1448 1450 1452 1453 1455 1455 1457 1458 1458 1459 1459 1459 1459 1458 1458
1425 1430 1431 1431 1433 1431 1429 1428 1428 1430 1430 1428 1428 1430 1418 1418 1419 1420 1423 1426 1429 1431 1434 1436 1438 1439 1441 1442 1444 1446 1448 1449 1450 1451 1453 1454 1454 1455 1455 1455 1455 1455 1454 1454
1424 1428 1428 1426 1421 1426 1429 1429 1429 1431 1431 1427 1422 1423 1421 1420 1421 1423 1425 1427 1429 1432 1434 1435 1437 1438 1440 1442 1443 1444 1445 1447 1448 1449 1450 1451 1451 1452 1452 1452 1452 1451 1451 1449
1424 1426 1424 1421 1418 1420 1422 1424 1425 1428 1424 1424 1417 1420 1420 1421 1422 1423 1425 1427 1430 1432 1433 1435 1436 1438 1439 1440 1441 1442 1444 1445 1446 1447 1447 1448 1448 1449 1449 1449 1449 1448 1447 1446
1424 1425 1423 1421 1416 1417 1418 1418 1420 1422 1421 1420 1418 1420 1418 1419 1422 1424 1426 1427 1429 1431 1433 1434 1435 1437 1438 1438 1439 1440 1441 1442 1444 1444 1445 1446 1446 1446 1446 1446 1445 1444 1443 1442
1424 1426 1424 1421 1416 1416 1420 1414 1416 1417 1416 1417 1419 1419 1419 1420 1422 1424 1426 1427 1429 1430 1432 1433 1434 1435 1436 1437 1438 1438 1439 1441 1442 1443 1443 1443 1444 1444 1444 1443 1442 1441 1439 1438
1424 1424 1423 1421 1421 1423 1414 1406 1407 1411 1413 1414 1415 1417 1418 1420 1422 1423 1425 1427 1428 1429 1430 1431 1432 1433 1434 1435 1436 1437 1438 1439 1440 1441 1441 1441 1441 1441 1441 1440 1439 1438 1436 1434
1419 1422 1422 1422 1419 1412 1410 1407 1408 1412 1415 1413 1414 1416 1417 1419 1421 1423 1425 1426 1427 1428 1429 1430 1431 1432 1433 1434 1435 1436 1436 1437 1438 1438 1439 1439 1439 1438 1438 1437 1436 1434 1432 1431
1417 1419 1422 1419 1416 1413 1412 1408 1407 1410 1416 1413 1413 1415 1416 1418 1423 1425 1424 1424 1425 1426 1427 1428 1430 1431 1431 1432 1433 1434 1435 1436 1436 1437 1437 1437 1436 1436 1434 1433 1432 1431 1429 1427
1418 1418 1419 1418 1416 1414 1412 1409 1408 1417 1418 1413 1413 1414 1416 1418 1421 1423 1423 1423 1424 1425 1426 1427 1428 1429 1430 1431 1432 1432 1433 1434 1434 1435 1435 1435 1434 1433 1432 1431 1429 1428 1426 1424
1414 1415 1415 1415 1416 1418 1413 1411 1415 1416 1413 1413 1414 1415 1417 1418 1419 1421 1422 1423 1423 1424 1425 1426 1427 1428 1429 1430 1431 1431 1432 1433 1433 1433 1432 1432 1431 1430 1429 1428 1426 1425 1423 1421
1412 1414 1413 1415 1417 1414 1413 1414 1415 1414 1414 1414 1415 1416 1417 1418 1419 1420 1421 1423 1423 1424 1425 1425 1426 1427 1428 1429 1430 1430 1430 1430 1430 1430 1429 1429 1428 1428 1427 1425 1424 1422 1420 1418
1414 1412 1413 1414 1414 1414 1415 1415 1415 1415 1415 1415 1416 1416 1417 1418 1419 1420 1421 1422 1423 1424 1424 1425 1426 1426 1427 1428 1428 1428 1428 1428 1428 1427 1427 1426 1426 1425 1424 1423 1421 1420 1418 1416
1417 1416 1416 1416 1417 1416 1415 1416 1416 1416 1416 1416 1416 1417 1418 1418 1419 1420 1421 1422 1423 1424 1424 1425 1425 1426 1426 1426 1426 1427 1426 1426 1426 1425 1425 1424 1424 1423 1422 1421 1420 1418 1416 1414
1419 1420 1419 1418 1418 1417 1417 1416 1416 1416 1416 1417 1417 1417 1418 1419 1419 1420 1421 1422 1422 1423 1424 1424 1425 1425 1425 1425 1425 1425 1425 1424 1424 1423 1423 1422 1422 1421 1420 1418 1417 1416 1414 1412